{"data":{"norad_id":69081,"epoch":"2026-05-24T20:08:22.576416Z","epoch_age_seconds":89086,"freshness":"FRESH","line1":"1 69081U 26104J   26144.83915019  .00000075  00000+0  28174-4 0  9997","line2":"2 69081  88.9870 344.2879 0002775 191.4733 168.6395 14.20302891  1775","mean_motion":14.20302891,"eccentricity":0.0002775,"inclination_deg":88.987,"raan_deg":344.2879,"arg_perigee_deg":191.4733,"mean_anomaly_deg":168.6395,"bstar":2.8174e-5,"rev_number":177,"period_min":101.38682453756,"perigee_km":822.32993657357,"apogee_km":826.32730499311,"semimajor_km":7202.4656207833,"source":"CELESTRAK","updated_at":"2026-05-25T13:38:09.050683Z"}}